Location: Barcelona
(41.3830°N, 2.1830°E)
Time: 14:36:27
(UTC+02:00)

ISS - Pass Details

Date: 01 April 2020
Orbit: 416 x 423 km, 51.6° (Epoch: 02 April)

Event Time Altitude Azimuth Distance (km) Brightness Sun altitude
Rises 22:33:47 0° 305° (NW) 2,361 1.5 -24.9°
Reaches altitude 10° 22:35:53 10° 305° (NW) 1,495 0.1 -25.2°
Enters shadow 22:37:45 31° 304° (NW) 763 -1.9 -25.5°
